RED-EYE

Last updated on Tue Sep 24 2019 00:02:11 GMT+0000 (Coordinated Universal Time)

1 44364U 98067QJ 19265.87681837 .00002504 00000-0 48708-4 0 9994 2 44364 51.6460 236.1933 0008589 54.6646 305.5149 15.51867746 13600
UTC large
Height (km)
Speed (km/s)
/
Latitude / Longitude
Inclination (degrees)
Orbital Period (minutes)
Azimuth
Elevation
Range (km)
Doppler Factor

Next 0 passes for location: London (51.5072 / 0.1276)

Sorry there are no passes over London.